User: anonymous   Login
Location: Unspecified
(0.0000°N, 0.0000°E)
Time: 18:53:06
(UTC+00:00)
Language:

AEHF 3 (USA 246) - Orbit

View from above orbital plane
View from above orbital plane
View from above satellite
View from above satellite

Ground track
Ground track

The orbit data is extracted from the following two-line orbital elements,

1 39256U 13050A   21136.83660266 -.00000347  00000-0  00000-0 0  9999
2 39256   0.8593  53.7707 0005591 352.2523 241.0103  1.00269626 27049
Epoch (UTC): 16 May 2021 20:04:42
Eccentricity: 0.0005591
inclination: 0.8593°
perigee height: 35763 km
apogee height: 35810 km
right ascension of ascending node: 53.7707°
argument of perigee: 352.2523°
revolutions per day: 1.00269626
mean anomaly at epoch: 241.0103°
orbit number at epoch: 2704

The dashed part of the orbit path shows where the satellite is in the earth's shadow,  

DLR